Orbital Elements at Epoch 2459200.5 (2020-Dec-17.0) TDB
Reference: JPL 18 (heliocentric ecliptic J2000)
Element | Value | Uncertainty (1-sigma) | Units |
e | .2028029694658814 | 5.206e-08 | |
a | 2.630091906803804 | 1.7437e-08 | au |
q | 2.09670145813581 | 1.339e-07 | au |
i | 13.23554219196185 | 5.4045e-06 | deg |
node | 269.3649104505316 | 2.0334e-05 | deg |
peri | 71.90724693178068 | 2.4916e-05 | deg |
M | 144.0135127339886 | 1.6851e-05 | deg |
tp | 2458577.259658125937 (2019-Apr-03.75965813) | 7.0086e-05 | TDB |
period | 1557.954658665234 4.27 | 1.5494e-05 4.242e-08 | d yr |
n | .2310721932744997 | 2.298e-09 | deg/d |
Q | 3.163482355471797 | 2.0974e-08 | au |
|
| | Orbit Determination Parameters
Additional Information
|